www.pogodaiklimat.ru

Погода и климат >> Архив погоды >> Саудовская Аравия >> Эль-Хуфуф


ПОГОДА в Эль-Хуфуфе

  • Прогноз погоды в Эль-Хуфуфе
  • Монитор погоды в Эль-Хуфуфе

АРХИВ ПОГОДЫ в Эль-Хуфуфе

Время (UTC), дата Ветер
(напр.,м/с)
 
Видим.   Явления Облачность Т
(С)
Тd
(С)
f
(%)
Тe
(С)
Тes
(С)
Комфортность P
(гПа)
Po
(гПа)
Тmin
(С)
Tmax
(С)
R
(мм)
R24
(мм)
S
(см)
21 13.08 СЗ 2 10 км ясно +33.2 +13.0 29 +34 +34 очень
жарко
996.8 977.8
00 14.08 СЗ 2 10 км ясно +30.8 +12.0 32 +31 +31 жарко 996.7 977.6
03 14.08 СЗ 3 6000 м пыль 5/0
[Ac trans]
+31.6 +12.0 30 +32 +32 жарко 999.0 979.8
06 14.08 штиль 0 8000 м пыль ясно +38.1 +11.0 20 +37 +55 опасность
солнечного
удара
1000.0 980.8 +30.4
09 14.08 СВ 3 9000 м пыль 1/0
[Ac trans]
+43.4 +5.0 10 +41 +57 опасность
перегрева
998.5 979.4
12 14.08 С 3 10 км ясно +45.3 +5.0 9 +42 +51 опасность
перегрева
997.1 978.0
15 14.08 С 4 10 км 1/0
[Ci fib]
+43.8 +7.0 11 +41 +41 опасность
перегрева
997.2 978.1
18 14.08 В 4 10 км ясно +38.0 +19.0 33 +42 +42 опасность
перегрева
999.3 980.2 +46.3
21 14.08 С 2 10 км 4/0
[Ci sp]
+34.0 +22.0 50 +43 +43 опасность
перегрева
999.2 980.1
00 15.08 З 3 10 км 3/0
[Ac trans Ci sp]
+32.9 +22.0 53 +42 +42 опасность
перегрева
998.5 979.4
03 15.08 З 2 3000 м мгла 4/0
[Ci sp]
+31.3 +22.0 58 +40 +41 очень
душно
999.3 980.1
06 15.08 СЗ 4 6000 м пыль {туман} ясно +38.8 +19.0 32 +43 +53 опасность
перегрева
1000.9 981.7 +31.1
09 15.08 С 3 10 км 1/0
[Ci sp]
+43.9 +10.0 14 +43 +60 опасность
перегрева
999.5 980.4
12 15.08 СВ 4 10 км ясно +45.6 +10.0 12 +44 +51 опасность
перегрева
997.4 978.4
15 15.08 СВ 3 10 км ясно +44.0 +9.0 13 +42 +42 опасность
перегрева
997.5 978.4
18 15.08 В 2 10 км ясно +38.3 +12.0 21 +38 +38 очень
жарко
999.7 980.6 +45.8
21 15.08 С 2 10 км ясно +33.8 +18.0 39 +38 +38 очень
душно
1000.0 980.9
00 16.08 штиль 0 9000 м мгла 3/0
[Ac trans]
+32.4 +22.0 54 +41 +41 опасность
перегрева
999.8 980.7
03 16.08 СЗ 5 8000 м мгла 4/0
[Ac trans]
+31.9 +20.0 49 +38 +38 очень
душно
1000.3 981.0
06 16.08 С 9 7000 м пыльный позёмок 4/0
[Ac trans]
+41.6 +5.0 11 +39 +40 очень
жарко
1000.6 981.5 +30.6
09 16.08 С 11 2000 м пыльный позёмок ясно +45.3 +3.0 8 +42 +42 опасность
перегрева
999.3 980.2
12 16.08 С 11 2000 м пыльный позёмок ясно +45.5 +3.0 8 +42 +42 опасность
перегрева
998.0 978.9
15 16.08 С 11 4300 м пыльный позёмок ясно +42.3 +3.0 9 +39 +39 очень
жарко
997.9 978.8
18 16.08 С 2 10 км 1/0
[Ac trans]
+36.2 +4.0 14 +33 +33 жарко 999.7 980.6 +46.0
21 16.08 СЗ 2 10 км ясно +31.9 +3.0 16 +29 +29 жарко 999.3 980.2
00 17.08 СЗ 3 10 км ясно +31.3 +2.0 15 +29 +29 жарко 998.9 979.8
03 17.08 СЗ 7 6000 м пыльный позёмок 1/0
[Ci fib]
+31.7 -1.0 12 +28 +28 жарко 999.7 980.2
06 17.08 СЗ 10 9000 м пыльный позёмок ясно +39.0 +1.0 9 +35 +36 очень
жарко
1000.4 981.1 +31.0
09 17.08 С 12 6000 м пыльный позёмок ясно +42.6 +3.0 9 +39 +39 очень
жарко
998.7 979.5
12 17.08 С 9 9000 м пыльный позёмок ясно +43.8 0.0 7 +40 +41 очень
жарко
997.2 978.1
15 17.08 С 5 10 км ясно +41.4 +1.0 8 +38 +38 очень
жарко
997.3 978.2
18 17.08 СЗ 2 10 км ясно +34.0 +4.0 15 +31 +31 жарко 999.2 980.0 +44.2
21 17.08 штиль 0 10 км ясно +29.8 +5.0 21 +28 +28 жарко 999.2 980.0
00 18.08 СЗ 3 10 км ясно +29.6 +2.0 17 +27 +27 жарко 998.6 979.4
03 18.08 СЗ 4 10 км ясно +30.1 0.0 14 +27 +28 жарко 1000.3 980.9
06 18.08 С 3 10 км ясно +39.5 +1.0 9 +36 +47 очень
жарко
1001.0 981.7 +28.6
09 18.08 С 8 10 км ясно +43.1 +1.0 8 +40 +44 очень
жарко
1000.6 981.3
12 18.08 С 6 10 км ясно +43.9 +1.0 7 +40 +44 очень
жарко
999.3 980.1
15 18.08 С 6 10 км ясно +41.8 +1.0 8 +38 +38 очень
жарко
999.7 980.5
18 18.08 СВ 3 10 км ясно +35.4 +5.0 15 +33 +33 жарко 1001.9 982.7 +44.6
21 18.08 СЗ 2 10 км ясно +30.9 +7.0 22 +29 +29 жарко 1001.6 982.4
00 19.08 СЗ 2 10 км ясно +28.0 +8.0 28 +28 +28 жарко 1001.2 981.9
03 19.08 штиль 0 10 км ясно +26.6 +8.0 31 +27 +27 жарко 1002.0 982.5
06 19.08 штиль 0 10 км ясно +39.3 +3.0 11 +36 +53 опасность
солнечного
удара
1002.6 983.3 +26.3
09 19.08 С 7 10 км ясно +42.6 +3.0 9 +39 +45 очень
жарко
1002.1 982.8
12 19.08 СВ 6 10 км ясно +43.8 +4.0 9 +41 +45 опасность
перегрева
1001.0 981.7
15 19.08 СВ 5 10 км ясно +40.4 +5.0 12 +38 +38 очень
жарко
1001.8 982.4
18 19.08 СВ 2 10 км ясно +35.7 +12.0 24 +35 +35 очень
жарко
1003.7 984.5 +44.5
21 19.08 СЗ 2 10 км ясно +30.8 +15.0 38 +33 +33 душно 1003.1 983.8
00 20.08 СЗ 2 10 км ясно +27.5 +15.0 46 +30 +30 жарко 1002.4 983.0
03 20.08 СЗ 2 6000 м мгла ясно +26.7 +19.0 63 +32 +32 очень
душно
1003.6 984.1
06 20.08 штиль 0 6000 м пыль ясно +36.0 +16.0 31 +38 +55 опасность
солнечного
удара
1004.9 985.4 +26.5
09 20.08 штиль 0 10 км ясно +40.9 +12.0 18 +40 +68 опасность
солнечного
удара
1003.4 984.0
12 20.08 В 3 8000 м пыль ясно +43.3 +14.0 18 +43 +51 опасность
перегрева
1001.8 982.4
15 20.08 штиль 0 10 км 3/3 1200 м
[Sc diur, vesp]
+42.1 +13.0 18 +42 +42 опасность
перегрева
1001.8 982.5
18 20.08 В 4 10 км ясно +37.4 +18.0 32 +41 +41 опасность
перегрева
1003.1 983.9 +44.3

 

Местоположение метеостанции Эль-Хуфуф (Саудовская Аравия): широта 25.30 долгота 49.48 высота над уровнем моря 178 м.

В архиве по умолчанию представлена погода в Эль-Хуфуфе за последнюю неделю. Архивные данные за месяц целиком и за предыдущие месяцы, начиная с января 2011 года, Вы можете получить, выбрав интересующий диапазон дат из раскрывающегося списка и нажав кнопку "Ввод!".


*Определитесь, кто Вы:
робот инопланетянин человек

Внимание! Время в таблицах - всемирное. Для получения местного времени необходимо прибавить поправку, которая равна 3 ч.

Смотрите также архив погоды в соседних городах и на ближайших метеорологических станциях:

Погода в Дахране (Саудовская Аравия) (128 км)
Погода в Духане (Катар) (128 км)
Погода в Эд-Даммаме (Саудовская Аравия) (132 км)
Погода в Абу Самба (Катар) (148 км)
Погода в Бахрейне (Бахрейн) (159 км)
Погода в Дохе (Катар) (210 км)
Погода в Доха порту (Катар) (211 км)
Погода в Аэропорту Хамад (Катар) (214 км)
Погода в Аэропорту Король Халид (Саудовская Аравия) (281 км)
Погода в Нувасибе (Кувейт) (363 км)

Пояснения к столбцам:

Ветер - указаны скорость ветра в м/с - средняя за 10 мин, порывы в срок и между сроками (в фигурных скобках) и направление, откуда дует ветер: С - северный, СВ - северо-восточный, В - восточный, ЮВ - юго-восточный, Ю - южный, ЮЗ - юго-западный, З - западный, СЗ - северо-западный.
Видимость - горизонтальная дальность видимости в метрах или километрах. При видимости от 1 до 10 км при отсутствии осадков обычно наблюдается дымка, при ухудшении видимости до 1 км и менее - туман. В сухую погоду видимость может ухудшаться дымом, пылью или мглою.
Явления - указаны атмосферные явления, наблюдавшиеся в срок или в последний час перед сроком; фигурными скобками обозначены явления, наблюдавшиеся между сроками (за 1-3 часа до срока); квадратными скобками обозначены град или гололедные отложения с указанием их диаметра в мм.
Облачность - указаны через наклонную черту общая и нижняя облачность в баллах и высота нижней границы облаков в метрах; квадратными скобками обозначены формы облаков: Ci - перистые, Cs - перисто-слоистые, Cc - перисто-кучевые, Ac - высококучевые, As - высокослоистые, Sc - слоисто-кучевые, Ns - слоисто-дождевые, Cu - кучевые, Cb - кучево-дождевые. Подробнее классификацию облаков см. в Атласе облаков (PDF).
T - Температура воздуха - температура, измеренная на высоте 2 м над землей.
Td - Температура точки росы - температура, при понижении до которой содержащийся в воздухе водяной пар достигнет насыщения.
f - Относительная влажность воздуха - влажноcть воздуха, измеренная на высоте 2 м над землей.
Te - Эффективная температура - температура, которую ощущает одетый по сезону человек в тени. Характеристика душности погоды. При расчете учитывается влияние влажности воздуха и скорости ветра на теплоощущения человека.
Tes - Эффективная температура на солнце - температура, которую ощущает человек, с поправкой на солнечный нагрев. Характеристика знойности погоды. Зависит от высоты солнца над горизонтом, облачности и скорости ветра. Ночью, в пасмурную погоду, а также при ветре 12 м/с и более поправка равна нулю.
P - Атмосферное давление - приведенное к уровню моря атмосферное давление.
Po - Атмосферное давление - измеренное на уровне метеостанции атмосферное давление.
Tmin - Минимальная температура - минимум температуры воздуха на высоте 2 м над землей.
Tmax - Максимальная температура - максимум температуры воздуха на высоте 2 м над землей.
R - Количество осадков - Количество выпавших осадков за период времени, мм. При наведении курсора мыши на число - период времени, за который выпало указанное количество осадков.
R24 - Количество осадков - Количество выпавших осадков за 24 часа, мм.
S - Снежный покров - Высота снежного покрова, см. При наведении курсора мыши на число - состояние снежного покрова и степень покрытия местности в баллах.